TimeEDT,TemperatureF,Dew PointF,Humidity,Sea Level PressureIn,VisibilityMPH,Wind Direction,Wind SpeedMPH,Gust SpeedMPH,PrecipitationIn,Events,Conditions,WindDirDegrees,DateUTC
12:52 AM,57.0,48.0,72,30.16,10.0,ESE,4.6,-,N/A,,Clear,120,2013-06-20 04:52:00
1:52 AM,57.0,48.0,72,30.16,10.0,Calm,Calm,-,N/A,,Clear,0,2013-06-20 05:52:00
2:52 AM,55.0,48.0,77,30.16,10.0,Calm,Calm,-,N/A,,Clear,0,2013-06-20 06:52:00
3:52 AM,52.0,48.0,86,30.17,10.0,Calm,Calm,-,N/A,,Clear,0,2013-06-20 07:52:00
4:52 AM,51.1,48.0,89,30.17,10.0,Calm,Calm,-,N/A,,Clear,0,2013-06-20 08:52:00
5:52 AM,51.1,48.0,89,30.18,10.0,Calm,Calm,-,N/A,,Clear,0,2013-06-20 09:52:00
6:52 AM,51.1,48.9,92,30.20,10.0,Calm,Calm,-,N/A,,Clear,0,2013-06-20 10:52:00
7:52 AM,59.0,51.1,75,30.20,10.0,Calm,Calm,-,N/A,,Clear,0,2013-06-20 11:52:00
8:52 AM,64.0,52.0,65,30.21,10.0,South,3.5,-,N/A,,Clear,180,2013-06-20 12:52:00
9:52 AM,69.1,53.1,57,30.22,10.0,SSW,3.5,-,N/A,,Clear,200,2013-06-20 13:52:00
10:52 AM,73.0,51.1,46,30.21,10.0,SSE,4.6,-,N/A,,Clear,160,2013-06-20 14:52:00
11:52 AM,77.0,50.0,39,30.20,10.0,Variable,4.6,-,N/A,,Clear,0,2013-06-20 15:52:00
12:52 PM,78.1,48.0,35,30.20,10.0,Variable,6.9,-,N/A,,Clear,0,2013-06-20 16:52:00
1:52 PM,80.1,48.9,34,30.19,10.0,West,8.1,-,N/A,,Clear,280,2013-06-20 17:52:00
2:52 PM,80.1,45.0,29,30.19,10.0,WSW,4.6,-,N/A,,Clear,250,2013-06-20 18:52:00
3:52 PM,81.0,46.9,30,30.19,10.0,Calm,Calm,-,N/A,,Partly Cloudy,0,2013-06-20 19:52:00
4:52 PM,82.0,45.0,27,30.18,10.0,WSW,6.9,-,N/A,,Clear,240,2013-06-20 20:52:00
5:52 PM,82.0,44.1,26,30.16,10.0,Calm,Calm,-,N/A,,Clear,0,2013-06-20 21:52:00
6:52 PM,80.1,46.0,30,30.15,10.0,South,3.5,-,N/A,,Clear,180,2013-06-20 22:52:00
7:52 PM,79.0,53.1,40,30.15,10.0,Calm,Calm,-,N/A,,Clear,0,2013-06-20 23:52:00
8:52 PM,73.9,54.0,50,30.16,10.0,East,6.9,-,N/A,,Clear,100,2013-06-21 00:52:00
9:52 PM,70.0,54.0,57,30.16,10.0,East,4.6,-,N/A,,Clear,100,2013-06-21 01:52:00
10:52 PM,66.9,55.0,66,30.18,10.0,East,3.5,-,N/A,,Partly Cloudy,90,2013-06-21 02:52:00
11:52 PM,64.9,54.0,68,30.19,10.0,Calm,Calm,-,N/A,,Scattered Clouds,0,2013-06-21 03:52:00